Starlink 32905

operational
NORAD ID: 62923 Int'l Des: 2025-027 Owner: SPXS Country: US Constellation: starlink
LEOCIRCULAR

关于 Starlink 32905

正在加载描述...

实时位置

正在加载3D地球...

即将过境

高度历史

Altitude vs Time

uPlot chart will show altitude changes over time

两行轨道根数

1 62923U 25027S 25257.43221694 .00017957 00000-0 65996-3 0 9997
2 62923 43.0002 44.4795 0001538 278.2863 81.7814 15.27605011 34586
Epoch: Sep 14, 2025 • Age: 19 hours

当前状态

高度 492.2 km
速度 7.62 km/s
星下点 -35.75°S, 78.67°W
发射日期 Feb 8, 2025
运行时间 0.5 years
类型 internet

技术详情

分类 Payload
质量 730.00 kg
干质量 700.00 kg
总质量 730.00 kg
长度 0.30 m
直径 4.10 m
跨度 29.00 m
形状 Box + pan
制造商 SPXS
平台类型 Starlink V2M
阶段状态 In Orbit
所有者/国家 SPXS/US

大型星座

Loading constellations...